カタログに戻る

STARLINK-38134

運用中通信SSO
NORAD 100123·PAYLOAD·🇺🇸 United States

打ち上げ Jul 21, 2026 から Vandenberg Space Force Base

Loading…

次のパス (今後24時間)

TLE

最新Source: Space-Track

元期: Sep 14, 2026, 00:59 UTC

1 A0123U 26166Y   26257.04138723  .00001279  00000-0  94440-5 0  9992
2 A0123  97.2844 275.1793 0001675  85.2384 274.9072 15.75187425  8593

AllMySatでSTARLINK-38134をリアルタイム追跡

Download on the App Store